GFJCA EGNM-EGCM

Flight info

Callsign GFJCA
Flight time 0h 6m
Altitude 3000
Route DCT
Aircraft TBM9/L-VGD/C

Departure

Time 2026-04-26 21:23
Airport Leeds Bradford Airport (EGNM)

Arrival

Time 2026-04-26 21:29
Airport Leeds East Airport (EGCM)
Time Latitude Longitude Altitude Speed Heading
2026-04-26 21:14 53.86572 -1.66607 660 ft 0 kts 240°
2026-04-26 21:19 53.86571 -1.66611 660 ft 1 kts 261°
2026-04-26 21:19 53.86572 -1.66617 660 ft 0 kts 316°
2026-04-26 21:19 53.86584 -1.66612 660 ft 5 kts 47°
2026-04-26 21:20 53.86607 -1.66566 660 ft 3 kts 64°
2026-04-26 21:20 53.86600 -1.66522 660 ft 12 kts 120°
2026-04-26 21:20 53.86545 -1.66359 660 ft 17 kts 122°
2026-04-26 21:20 53.86488 -1.66255 661 ft 8 kts 136°
2026-04-26 21:21 53.86481 -1.66213 661 ft 0 kts 47°
2026-04-26 21:21 53.86481 -1.66212 661 ft 1 kts 46°
2026-04-26 21:21 53.86537 -1.66106 662 ft 16 kts 54°
2026-04-26 21:22 53.86588 -1.66050 662 ft 4 kts 319°
2026-04-26 21:22 53.86590 -1.66054 662 ft 0 kts 315°
2026-04-26 21:22 53.86687 -1.66206 661 ft 54 kts 316°
2026-04-26 21:23 53.87731 -1.67903 1106 ft 137 kts 320°
2026-04-26 21:23 53.88638 -1.68367 1410 ft 142 kts
2026-04-26 21:23 53.89471 -1.67462 1515 ft 147 kts 56°
2026-04-26 21:23 53.89627 -1.65834 1736 ft 146 kts 101°
2026-04-26 21:24 53.89381 -1.64035 1823 ft 175 kts 103°
2026-04-26 21:24 53.89146 -1.61792 1826 ft 209 kts 99°
2026-04-26 21:24 53.88744 -1.59311 1825 ft 227 kts 113°
2026-04-26 21:24 53.87933 -1.56945 1818 ft 236 kts 126°
2026-04-26 21:25 53.86967 -1.54665 1814 ft 240 kts 126°
2026-04-26 21:25 53.86037 -1.52305 1813 ft 242 kts 123°
2026-04-26 21:25 53.85128 -1.49899 1814 ft 243 kts 123°
2026-04-26 21:25 53.84207 -1.47497 1812 ft 244 kts 124°
2026-04-26 21:26 53.83279 -1.45098 1811 ft 243 kts 124°
2026-04-26 21:26 53.82385 -1.42670 1800 ft 244 kts 116°
2026-04-26 21:26 53.81890 -1.39929 1796 ft 244 kts 101°
2026-04-26 21:26 53.81646 -1.37090 1795 ft 244 kts 97°
2026-04-26 21:27 53.81409 -1.34230 1672 ft 247 kts 99°
2026-04-26 21:27 53.81143 -1.31584 1402 ft 211 kts 100°
2026-04-26 21:27 53.80929 -1.29296 1157 ft 182 kts 99°
2026-04-26 21:27 53.80774 -1.27362 942 ft 151 kts 92°
2026-04-26 21:28 53.80941 -1.25768 755 ft 127 kts 70°
2026-04-26 21:28 53.81382 -1.24488 607 ft 119 kts 55°
2026-04-26 21:28 53.81847 -1.23381 477 ft 108 kts 56°
2026-04-26 21:28 53.82264 -1.22379 338 ft 101 kts 56°
2026-04-26 21:29 53.82667 -1.21422 204 ft 98 kts 55°
2026-04-26 21:29 53.83056 -1.20485 56 ft 93 kts 56°
2026-04-26 21:29 53.83323 -1.19843 32 ft 23 kts 54°
2026-04-26 21:29 53.83351 -1.19744 31 ft 4 kts 66°
2026-04-26 21:30 53.83362 -1.19779 31 ft 9 kts 234°
2026-04-26 21:30 53.83318 -1.19891 33 ft 8 kts 271°
2026-04-26 21:30 53.83369 -1.19964 31 ft 13 kts 324°
2026-04-26 21:30 53.83436 -1.20065 31 ft 8 kts 311°
2026-04-26 21:31 53.83455 -1.20100 31 ft 1 kts 314°
2026-04-26 21:31 53.83456 -1.20100 31 ft 0 kts 315°